Weather History for Appleton, MN

Change the Weather History Date:

Sunday, March 9, 2014

  Actual Average Record
Temperature  
Mean Temperature 36 °F -  
Max Temperature 50 °F 27 °F 50 °F (2004)
Min Temperature 21 °F 11 °F -9 °F (2003)
Degree Days  
Heating Degree Days 30    
Moisture  
Dew Point 30 °F    
Average Humidity 74    
Maximum Humidity 87    
Minimum Humidity 61    
Precipitation  
Precipitation 0.00 in - - ()
Sea Level Pressure  
Sea Level Pressure 29.75 in    
Wind  
Wind Speed 8 mph (SSW)    
Max Wind Speed 14 mph    
Max Gust Speed -    
Visibility 10 miles    
Events      
Averages and records for this station are not official NWS values.
T = Trace of Precipitation, MM = Missing Value Source: NWS Daily Summary

Daily Weather History Graph

Daily Weather History Graph

Search for Another Location

Airport:

Trip Planner

Search our weather history database for the weather conditions in past years. The results will help you decide how hot, cold, wet, or windy it might be!

Date:

Astronomy

Mar. 09, 2014 Rise Set
Actual Time 7:47 AM CDT 7:22 PM CDT
Civil Twilight 7:18 AM CDT 7:51 PM CDT
Nautical Twilight 6:44 AM CDT 8:25 PM CDT
Astronomical Twilight 6:09 AM CDT 9:00 PM CDT
Moon 1:04 PM CDT (3/9) 3:25 AM CDT (3/9)
Length of Visible Light 12h 33m
Length of Day
11h 34m
First Quarter, 61% of the Moon is Illuminated
Mar 9
First Quarter
Mar 16
Full
Mar 23
Last Quarter
Mar 30
New
Apr 7
First Quarter

Hourly Weather History & Observations

Time (CDT) Temp. Windchill Dew Point Humidity Pressure Visibility Wind Dir Wind Speed Gust Speed Precip Events Conditions
12:13 AM 23.0 °F 13.1 °F 17.6 °F 80% 30.04 in 10.0 mi South 9.2 mph - N/A   Clear
12:33 AM 21.2 °F 11.7 °F 17.6 °F 86% 30.03 in 10.0 mi SSE 8.1 mph - N/A   Clear
12:53 AM 23.0 °F 13.1 °F 17.6 °F 80% 30.02 in 10.0 mi South 9.2 mph - N/A   Clear
1:13 AM 23.0 °F 13.9 °F 17.6 °F 80% 30.01 in 10.0 mi South 8.1 mph - N/A   Clear
1:33 AM 23.0 °F 13.9 °F 17.6 °F 80% 30.00 in 10.0 mi South 8.1 mph - N/A   Clear
1:53 AM 23.0 °F 13.1 °F 17.6 °F 80% 29.98 in 10.0 mi SSE 9.2 mph - N/A   Clear
3:13 AM 23.0 °F 15.8 °F 17.6 °F 80% 29.97 in 10.0 mi SSE 5.8 mph - N/A   Clear
3:33 AM 24.8 °F 17.9 °F 17.6 °F 74% 29.96 in 10.0 mi South 5.8 mph - N/A   Clear
3:53 AM 24.8 °F 17.9 °F 17.6 °F 74% 29.94 in 10.0 mi SSE 5.8 mph - N/A   Clear
4:13 AM 24.8 °F 16.9 °F 17.6 °F 74% 29.92 in 10.0 mi South 6.9 mph - N/A   Clear
4:33 AM 24.8 °F 16.9 °F 19.4 °F 80% 29.91 in 10.0 mi South 6.9 mph - N/A   Clear
4:53 AM 24.8 °F 17.9 °F 19.4 °F 80% 29.90 in 10.0 mi South 5.8 mph - N/A   Clear
5:13 AM 26.6 °F 19.1 °F 19.4 °F 74% 29.89 in 10.0 mi South 6.9 mph - N/A   Clear
5:33 AM 26.6 °F 20.0 °F 21.2 °F 80% 29.88 in 10.0 mi South 5.8 mph - N/A   Clear
5:53 AM 26.6 °F 21.2 °F 21.2 °F 80% 29.86 in 10.0 mi South 4.6 mph - N/A   Clear
6:15 AM 28.4 °F 22.2 °F 23.0 °F 80% 29.85 in 10.0 mi South 5.8 mph - N/A   Clear
6:33 AM 30.2 °F 22.6 °F 24.8 °F 80% 29.83 in 10.0 mi South 8.1 mph - N/A   Clear
6:53 AM 32.0 °F 24.8 °F 24.8 °F 75% 29.82 in 10.0 mi South 8.1 mph - N/A   Clear
7:13 AM 32.0 °F 26.4 °F 24.8 °F 75% 29.82 in 10.0 mi South 5.8 mph - N/A   Clear
7:33 AM 32.0 °F 24.2 °F 26.6 °F 80% 29.80 in 10.0 mi South 9.2 mph - N/A   Clear
7:53 AM 33.8 °F 27.0 °F 26.6 °F 75% 29.80 in 10.0 mi South 8.1 mph - N/A   Clear
8:13 AM 33.8 °F 26.4 °F 26.6 °F 75% 29.78 in 10.0 mi South 9.2 mph - N/A   Clear
8:33 AM 33.8 °F 27.0 °F 26.6 °F 75% 29.77 in 10.0 mi South 8.1 mph - N/A   Clear
8:53 AM 33.8 °F 27.0 °F 26.6 °F 75% 29.76 in 10.0 mi South 8.1 mph - N/A   Clear
9:13 AM 35.6 °F 28.6 °F 28.4 °F 75% 29.75 in 10.0 mi SSW 9.2 mph - N/A   Clear
9:33 AM 37.4 °F 32.1 °F 28.4 °F 70% 29.74 in 10.0 mi SSW 6.9 mph - N/A   Clear
9:54 AM 37.4 °F 31.4 °F 30.2 °F 75% 29.73 in 10.0 mi SW 8.1 mph - N/A   Clear
10:13 AM 39.2 °F 33.0 °F 30.2 °F 70% 29.73 in 10.0 mi SW 9.2 mph - N/A   Clear
10:33 AM 41.0 °F 34.7 °F 30.2 °F 65% 29.72 in 10.0 mi SW 10.4 mph - N/A   Clear
10:54 AM 42.8 °F 37.0 °F 30.2 °F 61% 29.71 in 10.0 mi SW 10.4 mph - N/A   Clear
11:13 AM 42.8 °F 37.5 °F 30.2 °F 61% 29.71 in 10.0 mi SW 9.2 mph - N/A   Clear
11:33 AM 42.8 °F 37.0 °F 32.0 °F 66% 29.70 in 10.0 mi SW 10.4 mph - N/A   Clear
11:53 AM 42.8 °F 36.2 °F 32.0 °F 66% 29.71 in 10.0 mi WSW 12.7 mph - N/A   Clear
12:13 PM 44.6 °F 38.1 °F 32.0 °F 61% 29.70 in 10.0 mi WSW 13.8 mph - N/A   Clear
12:33 PM 44.6 °F 38.1 °F 33.8 °F 66% 29.69 in 10.0 mi WSW 13.8 mph - N/A   Clear
12:54 PM 46.4 °F 40.7 °F 33.8 °F 62% 29.69 in 10.0 mi WSW 12.7 mph - N/A   Clear
1:13 PM 46.4 °F 42.4 °F 35.6 °F 66% 29.69 in 10.0 mi West 8.1 mph - N/A   Clear
1:34 PM 46.4 °F 41.5 °F 35.6 °F 66% 29.68 in 10.0 mi WSW 10.4 mph - N/A   Clear
1:53 PM 48.2 °F - 35.6 °F 62% 29.68 in 10.0 mi West 12.7 mph - N/A   Clear
2:13 PM 48.2 °F - 35.6 °F 62% 29.68 in 10.0 mi West 11.5 mph - N/A   Clear
2:33 PM 48.2 °F - 37.4 °F 66% 29.67 in 10.0 mi West 9.2 mph - N/A   Clear
2:53 PM 48.2 °F - 35.6 °F 62% 29.67 in 10.0 mi West 10.4 mph - N/A   Clear
3:14 PM 48.2 °F - 37.4 °F 66% 29.66 in 10.0 mi West 8.1 mph - N/A   Clear
3:33 PM 50.0 °F - 37.4 °F 62% 29.66 in 10.0 mi West 8.1 mph - N/A   Clear
3:53 PM 50.0 °F - 37.4 °F 62% 29.66 in 10.0 mi West 9.2 mph - N/A   Clear
4:13 PM 48.2 °F - 37.4 °F 66% 29.66 in 10.0 mi West 6.9 mph - N/A   Clear
4:33 PM 46.4 °F 44.3 °F 39.2 °F 76% 29.67 in 10.0 mi WSW 4.6 mph - N/A   Clear
4:53 PM 46.4 °F 42.9 °F 37.4 °F 71% 29.67 in 10.0 mi West 6.9 mph - N/A   Clear
5:13 PM 46.4 °F 42.9 °F 37.4 °F 71% 29.67 in 10.0 mi WSW 6.9 mph - N/A   Clear
5:34 PM 46.4 °F 44.3 °F 37.4 °F 71% 29.68 in 10.0 mi West 4.6 mph - N/A   Clear
5:53 PM 46.4 °F 43.5 °F 37.4 °F 71% 29.68 in 10.0 mi WSW 5.8 mph - N/A   Clear
6:13 PM 46.4 °F 43.5 °F 37.4 °F 71% 29.68 in 10.0 mi WSW 5.8 mph - N/A   Clear
6:33 PM 44.6 °F 40.7 °F 35.6 °F 71% 29.68 in 10.0 mi SW 6.9 mph - N/A   Clear
6:53 PM 44.6 °F 40.7 °F 35.6 °F 71% 29.68 in 10.0 mi WSW 6.9 mph - N/A   Clear
7:13 PM 44.6 °F 41.4 °F 35.6 °F 71% 29.68 in 10.0 mi SW 5.8 mph - N/A   Clear
7:34 PM 44.6 °F 42.2 °F 35.6 °F 71% 29.68 in 10.0 mi SW 4.6 mph - N/A   Clear
7:53 PM 44.6 °F 43.1 °F 35.6 °F 71% 29.68 in 10.0 mi SW 3.5 mph - N/A   Clear
8:14 PM 44.6 °F 43.1 °F 35.6 °F 71% 29.68 in 10.0 mi SSW 3.5 mph - N/A   Clear
8:33 PM 44.6 °F 41.4 °F 35.6 °F 71% 29.66 in 10.0 mi South 5.8 mph - N/A   Clear
8:53 PM 42.8 °F 38.6 °F 35.6 °F 76% 29.65 in 10.0 mi SSW 6.9 mph - N/A   Clear
9:13 PM 42.8 °F 39.3 °F 35.6 °F 76% 29.66 in 10.0 mi SSW 5.8 mph - N/A   Clear
9:33 PM 42.8 °F 41.1 °F 35.6 °F 76% 29.67 in 10.0 mi SSW 3.5 mph - N/A   Clear
9:53 PM 42.8 °F 41.1 °F 35.6 °F 76% 29.67 in 10.0 mi SSW 3.5 mph - N/A   Clear
10:14 PM 42.8 °F 41.1 °F 35.6 °F 76% 29.67 in 10.0 mi SSW 3.5 mph - N/A   Clear
10:33 PM 39.2 °F 37.0 °F 33.8 °F 81% 29.66 in 10.0 mi South 3.5 mph - N/A   Clear
10:53 PM 39.2 °F 37.0 °F 33.8 °F 81% 29.66 in 10.0 mi South 3.5 mph - N/A   Clear
11:14 PM 37.4 °F - 33.8 °F 87% 29.66 in 10.0 mi Calm Calm - N/A   Clear
11:34 PM 37.4 °F 32.8 °F 33.8 °F 87% 29.65 in 10.0 mi South 5.8 mph - N/A   Clear
11:53 PM 37.4 °F 33.8 °F 33.8 °F 87% 29.65 in 10.0 mi SSW 4.6 mph - N/A   Clear
12:13 AM 37.4 °F 34.9 °F 33.8 °F 87% 29.65 in 10.0 mi SSW 3.5 mph - N/A   Clear
12:33 AM 37.4 °F 33.8 °F 33.8 °F 87% 29.65 in 10.0 mi SW 4.6 mph - N/A   Clear
12:53 AM 39.2 °F 34.2 °F 33.8 °F 81% 29.65 in 10.0 mi WSW 6.9 mph - N/A   Clear